Location: ????????
(55.3155°N, 39.2900°E)
Time: 10:15:13
(UTC+00:00)

ARIANE 6 FM1 Upper Stage - Pass Details

Date: 17 November 2025
Orbit: 522 x 612 km, 62.0° (Epoch: 07 December)

Event Time Altitude Azimuth Distance (km) Brightness Sun altitude
Rises 16:18:29 0° 291° (WNW) 2,661 7.3 -25.6°
Reaches altitude 10° 16:20:51 10° 301° (WNW) 1,769 6.0 -26.0°
Enters shadow 16:23:19 27° 334° (NNW) 1,044 4.2 -26.3°
